Regional Weather Roundup
Issued by NWS

Home | Current Version | Previous Version | Text Only | Print | Product List | Glossary Off
Versions: 1 2 3 4 5 6 7 8 9 10 11 12 13 14 15 16 17 18 19 20 21 22 23 24 25 26 27 28 29 30 31 32 33 34 35 36 37 38 39 40 41 42 43 44 45 46 47 48 49 50

000
ASUS43 KDTX 160910
RWRMI
MICHIGAN HOURLY REGIONAL WEATHER ROUNDUP
NATIONAL WEATHER SERVICE DETROIT/PONTIAC MI
ISSUED BY NATIONAL WEATHER SERVICE GRAND RAPIDS MI
400 AM EST MON JAN 16 2017

NOTE: "FAIR" INDICATES FEW OR NO CLOUDS BELOW 12,000 FEET WITH NO
SIGNIFICANT WEATHER AND/OR OBSTRUCTION TO VISIBILITY.

MIZ047>049-052>055-059>063-066>070-074>076-081>083-161000-
SOUTHEAST LOWER MICHIGAN

CITY           SKY/WX    TMP DP  RH WIND       PRES   REMARKS
ADRIAN         CLOUDY    21  20  96 NE3       30.33F FOG
ALMA           CLOUDY    19  18  95 CALM      30.32S FOG
ANN ARBOR      CLOUDY    15  13  91 CALM      30.33F
BAD AXE        CLOUDY    21  18  90 S5        30.31F WCI  14
DETROIT CITY   PTCLDY    21  18  88 CALM      30.34F FOG
DETROIT        CLOUDY    20  16  84 CALM      30.35F FOG
FLINT          CLOUDY    20  18  92 CALM      30.33S
GROSSE ILE     CLOUDY    22  20  92 CALM      30.33F FOG
HILLSDALE      CLOUDY    21  19  93 CALM      30.29F FOG
HOWELL         CLOUDY    22  19  91 CALM      30.31S

CITY           SKY/WX    TMP DP  RH WIND       PRES   REMARKS
JACKSON        PTCLDY    21  17  84 CALM      30.31F FOG
LANSING        CLOUDY    22  18  85 S5        30.32S WCI  16
MASON          CLOUDY    23  21  94 S3        30.31F
MONROE         CLOUDY    20  20  96 CALM      30.33F FOG
MT. CLEMENS    CLOUDY    19  17  95 CALM      30.33S
PONTIAC        CLOUDY    17  13  84 CALM      30.31S FOG
PORT HOPE        N/A     24  20  84 VRB3      30.29F
PORT HURON     PTCLDY    16  16 100 CALM      30.35R FOG
TRI CITIES     CLOUDY    24  21  88 SW6       30.32S FOG     WCI  17
YPSILANTI      CLOUDY    20  17  88 CALM      30.34F FOG
$$
MIZ043>046-050>051-056>058-064>065-071>073-077>080-161000-
SOUTHWEST LOWER MICHIGAN

CITY           SKY/WX    TMP DP  RH WIND       PRES   REMARKS
BATTLE CREEK   CLOUDY    22  20  92 CALM      30.30F
BENTON HARBOR  MOCLDY    29  24  82 E5        30.29F WCI  24
BIG RAPIDS     CLOUDY    12   9  89 CALM      30.29S
COLDWATER      CLOUDY    25  24  93 CALM      30.30F
HOLLAND        PTCLDY    26  22  84 CALM      30.30F
GRAND RAPIDS   CLOUDY    22  18  85 SE5       30.31F FOG     WCI  16
KALAMAZOO      CLOUDY    23  18  81 CALM      30.30F HAZE
MARSHALL       PTCLDY    22  21  95 CALM      30.31S
MOUNT PLEASANT CLOUDY    16  14  90 CALM      30.30S FOG
MUSKEGON       CLOUDY    22  19  89 SE3       30.31S FOG
STURGIS        PTCLDY    27  24  89 E3        30.29F
$$
MIZ016>042-161000-
NORTHERN LOWER MICHIGAN

CITY           SKY/WX    TMP DP  RH WIND       PRES   REMARKS
ALPENA         CLOUDY    23  14  68 SW7       30.24F WCI  15
BEAVER ISLAND  CLEAR     30  25  80 SW12G21   30.20F WCI  21
BELLAIRE       PTCLDY     9   7  92 CALM      30.27F FOG
CADILLAC         N/A     16  14  92 CALM      30.24S FOG
CHARLEVOIX     CLOUDY    28  25  88 S5        30.26F WCI  22
GAYLORD        CLOUDY    21  16  81 SW10      30.21F WCI  10
HOUGHTON LAKE  CLOUDY    18  15  88 SW7       30.26F WCI   9
MANISTEE       CLOUDY    11   9  92 NE3       30.28F
OSCODA         CLOUDY    16  14  91 S3        30.27F FOG
PELLSTON       CLOUDY    28  22  78 SW9       30.21F WCI  19
TRAVERSE CITY  CLOUDY    17  15  92 CALM      30.26S FOG
LUDINGTON      PTCLDY    16  15  95 CALM      30.28F FOG
$$
MIZ007>008-015-161000-
EASTERN UPPER MICHIGAN

CITY           SKY/WX    TMP DP  RH WIND       PRES   REMARKS
KINROSS        CLEAR     27  24  89 SW10      30.17F WCI  17
MACKINAC ISLAN CLEAR     28  26  95 SW12G17   30.18F WCI  17
NEWBERRY       CLOUDY    21  16  78 SW12      30.16S WCI  10
S. S. MARIE    CLOUDY    28  23  81 SW10      30.15F WCI  19
$$
MIZ004>006-011>014-085-161000-
CENTRAL UPPER MICHIGAN

CITY           SKY/WX    TMP DP  RH WIND       PRES   REMARKS
MANISTIQUE     CLOUDY    21  16  79 SW8       30.19F WCI  12
ESCANABA       PTCLDY    15  11  83 SW6       30.21S WCI   6
SAWYER-GWINN   CLOUDY    19  11  68 SW10      30.13S WCI   8
$$
MIZ001>003-009>011-084-161000-
WESTERN UPPER MICHIGAN

CITY           SKY/WX    TMP DP  RH WIND       PRES   REMARKS
IRON MOUNTAIN  CLOUDY    15   7  70 VRB3      30.15F
HOUGHTON       CLEAR     26  15  63 W22       30.09R WCI  12
COPPER HARBOR    N/A     30  21  69 SW5       30.08S WCI  25
IRONWOOD       CLOUDY    21  15  78 SW8       30.16R WCI  11
$$

ABBREVIATIONS USED IN REMARKS
   TC - TEMPERATURE IN CELSIUS
  WCI - WIND CHILL INDEX
   HX - HEAT INDEX
  VSB - VISIBILITY




USA.gov is the U.S. government's official web portal to all federal, state and local government web resources and services.